STARLINK-3851, 52344

Orbit data source: Space-Track

STARLINK-3851, 52344 is a payload satellite owned by SpaceX/Seattle (US) in LEO that was launched on Fri, 29 Apr 2022 UTC via an FALCON 9 launch vehicle from the Air Force Eastern Test Range (AFETR). Payload-class satellites include a variety of spacecraft equipped with specific instruments for various scientific and technological missions. These include communications satellites like Starlink; space stations such as the ISS; scientific satellites like the Hubble; Earth observation satellites from companies like Planet Labs, Umbra, and HawkEye 360; GPS; miniature CubeSats for education and research; and military/defense satellites.

Loading next visibility...
Identifier
52344, 2022-045P
Orbit
LEO
Country
Flag of USUS
Related business
Manufacturer
SpaceX/Seattle
Mission
Operational Commercial Communications
Bus & Motor
STARLINK, Unknown motor
Mass
297 kg wet, ~275 kg dry
Launch date (UTC)
2022-04-29 (4 years ago)
Launch vehicle
FALCON 9
Launch site
Air Force Eastern Test Range (AFETR)
Object type
Payload
Rocket body
Debris
Shape & HBR
Box + 1 Pan, 10.1 m
Radar Cross Section
11.087 m², Large (>1 m²)

Expand to show TLE details & history
Last TLE update: 9 hours ago

TLE from 9 hours ago
0 STARLINK-3851
1 52344U 22045P   26119.85202721  .00000332  00000-0  38962-4 0  9997
2 52344  53.2183 329.5108 0001385  88.8476 271.2675 15.08842925223504
Epoch: 2026-04-29T20:26Z
TLE epoch observation values (Epoch: 2026-04-29T20:26:55.150Z)
Latitude
-0.00003°
Longitude
164.97394°
Altitude
540.611 km
Speed
7.593 km/s
True Right ascension
21h 58m 02s
True Declination
0° 00' 00"
Sunlit
Object was in daylight at epoch
Visualization orbit readout
Latitude
Unknown
Longitude
Unknown
Altitude
Unknown
Speed
Unknown
Apparent Right ascension
Unknown
Apparent Declination
Unknown
Sunlit
N/A
Visualization observer readout
Local Sidereal Time
12:59:19
Azimuth
Unknown
Elevation
Unknown
Doppler factor
Unknown
Orbital elements
Apogee altitude
540.937 km
Perigee altitude
539.021 km
Semi-major axis
6,918.116 km
Eccentricity
0.00014
Inclination
53.2183°
RAAN
329.5108°
Arg. of periapsis
88.8476°
True anomaly
271.25163°
Mean anomaly
271.2675°
Eccentric anomaly
271.25957°
Mean motion
3.77191 °/min
Orbital period
95.44 mins
BSTAR
0.000038962
Loading maneuver chart data...
Computing Atmospheric mass density...
Loading historical data...
Loading historical data...
Loading historical data...
Loading historical data...
Loading historical data...
Loading historical data...
Loading historical data...

Documentation

Showing up to 5 results
|